Location: Unnamed
(33.0780°N, 97.0417°W)
Time: 17:05:53
(UTC-06:00)

Hubble Space Telescope - Pass Details

Date: 28 June 2020
Orbit: 536 x 539 km, 28.5° (Epoch: 01 March)

Event Time Altitude Azimuth Distance (km) Brightness Sun altitude
Exits shadow 04:35:29 40° 184° (S) 802 1.2 -18.6°
Maximum altitude 04:35:45 40° 174° (S) 794 1.3 -18.6°
Drops below altitude 10° 04:39:38 10° 104° (ESE) 1,784 3.8 -18.0°
Sets 04:41:59 0° 96° (E) 2,675 4.9 -17.7°
